Regional Weather Roundup
Issued by NWS Northern Indiana

Current Version | Previous Version | Text Only | Print | Product List | Glossary On
Versions: 1 2 3 4 5 6 7 8 9 10 11 12 13 14 15 16 17 18 19 20 21 22 23 24 25 26 27 28 29 30 31 32 33 34 35 36 37 38 39 40 41 42 43 44 45 46 47 48 49 50
000
ASUS43 KIWX 271910
RWRIWX

KIWX WEATHER ROUNDUP
NATIONAL WEATHER SERVICE NORTHERN INDIANA
300 PM EDT WED JUL 27 2016

NOTE: "FAIR" INDICATES FEW OR NO CLOUDS BELOW 12,000 FEET WITH NO
SIGNIFICANT WEATHER AND/OR OBSTRUCTIONS TO VISIBILITY.

* THESE STATIONS ARE NOT UNDER NWS QUALITY CONTROL. THEY ALSO MAY NOT
  REPORT WEATHER SUCH AS PRECIPITATION OR FOG.

INZ001>027-272000-
NORTHERN INDIANA

CITY           SKY/WX    TMP DP  RH WIND       PRES   REMARKS
GARY*          MOSUNNY   88  68  51 N6        30.00F
VALPARAISO     SUNNY     85  65  51 VRB7      30.01F
MICHIGAN CITY* SUNNY     84  64  51 N6        30.01F
LAPORTE*       MOSUNNY   87  66  49 SW5       30.01F
KNOX*          SUNNY     84  54  34 CALM      30.00F
SOUTH BEND     MOSUNNY   85  66  53 NW7       30.01F
ELKHART*       SUNNY     86  68  54 MISG      30.01F
GOSHEN         SUNNY     86  59  39 SW7       30.00F
MONTICELLO*    MOSUNNY   84  61  45 CALM      30.00F
LOGANSPORT*    MOSUNNY   84  63  48 W5        30.02F
ROCHESTER*     MOSUNNY   86  64  48 CALM      30.02F
WARSAW*        MOSUNNY   84  64  51 NW6       30.01F
ANGOLA*          N/A     88  63  42 VRB3      30.00F
FORT WAYNE     MOSUNNY   87  57  35 SW9       30.00F
HUNTINGTON*    MOSUNNY   84  63  49 W3        30.00F
PERU/GRISSOM   SUNNY     87  65  49 VRB7      30.00F
MARION*        SUNNY     84  61  46 NW5       30.01F

$$
INZ028>050-272000-
CENTRAL INDIANA

CITY           SKY/WX    TMP DP  RH WIND       PRES   REMARKS
LAFAYETTE      MOSUNNY   86  64  47 CALM      30.00F
KOKOMO*        SUNNY     88  64  45 NW6       30.00F
MUNCIE*        SUNNY     88  60  38 N8        30.00F
INDIANAPOLIS   MOSUNNY   88  64  44 W7        30.00S

$$
MIZ043>046-050>051-056>058-064>065-071>073-077>080-272000-
SOUTHWEST LOWER MICHIGAN

CITY           SKY/WX    TMP DP  RH WIND       PRES   REMARKS
BATTLE CREEK   SUNNY     83  63  50 W6        30.01F
BENTON HARBOR  SUNNY     84  64  50 W9        30.00F
COLDWATER*     SUNNY     85  60  43 CALM      30.00F
HILLSDALE*       N/A    N/A N/A N/A MISG        N/A
HOLLAND        SUNNY     84  68  58 W10       30.00F
GRAND RAPIDS   PTSUNNY   86  68  54 W13G20    29.98F
KALAMAZOO      SUNNY     87  64  46 W8        29.99F
STURGIS*       SUNNY     85  59  40 CALM      30.00F
THREE RIVERS*  FAIR      86  58  37 NE3       30.01S

$$
OHZ001>008-015>018-024>025-272000-
NORTHWEST OHIO

CITY           SKY/WX    TMP DP  RH WIND       PRES   REMARKS
DEFIANCE       MOSUNNY   87  61  41 CALM      29.98F
FINDLAY        MOSUNNY   89  56  32 VRB5      29.98F
TOLEDO EXPRESS SUNNY     88  62  41 NW5       29.98F
TOLEDO METCALF MOSUNNY   89  61  38 W9        29.99F
LIMA           PTSUNNY   85  63  47 S3        30.00F

$$
AND FOR LAKE MICHIGAN COASTAL AND OPEN LAKE BUOY OBSERVATIONS

STATION/POSITION TEMP    WIND        PRES    VSBY  WAVE
                 AIR SEA DIR/SP/G                  HT/PER
                 (F)     (DEG/KT/KT) (MB)    (MI)  (FT/S)
MICHIGAN CITY     81     330/  6/  6   N/A
BURNS HARBOR      78      20/  6/  7 1016.9F
SAINT JOSEPH      83     260/  4/  5 1016.9S
SOUTH LAKE BUOY   77 76  190/  6/  8 1014.9F         0
4 MI NW BRIDGMAN  77 79  270/  4/  4 1015.7F         0
MICHIGAN CITY     78 78  360/  4/  6   N/A           0

$$
&&



USA.gov is the U.S. government's official web portal to all federal, state and local government web resources and services.